TimeHST,TemperatureF,Dew PointF,Humidity,Sea Level PressureIn,VisibilityMPH,Wind Direction,Wind SpeedMPH,Gust SpeedMPH,PrecipitationIn,Events,Conditions,WindDirDegrees,DateUTC
12:56 AM,68.9,63.0,81,30.09,10.0,ENE,12.7,-,N/A,,Clear,60,2012-11-13 10:56:00
1:56 AM,68.9,61.9,78,30.06,10.0,NE,16.1,-,N/A,,Partly Cloudy,50,2012-11-13 11:56:00
2:56 AM,68.9,61.9,78,30.06,10.0,East,10.4,-,N/A,,Partly Cloudy,80,2012-11-13 12:56:00
3:56 AM,68.9,61.9,78,30.05,10.0,East,6.9,-,N/A,,Clear,90,2012-11-13 13:56:00
4:56 AM,69.8,62.6,78,30.11,10.0,NE,19.6,-,N/A,,Scattered Clouds,50,2012-11-13 14:56:00
6:56 AM,68.0,59.9,75,30.09,10.0,ENE,10.4,-,N/A,,Scattered Clouds,70,2012-11-13 16:56:00
7:56 AM,70.9,61.0,71,30.09,10.0,ESE,11.5,-,N/A,,Partly Cloudy,120,2012-11-13 17:56:00
8:56 AM,77.0,63.0,62,30.10,10.0,ENE,12.7,-,N/A,,Partly Cloudy,70,2012-11-13 18:56:00
9:56 AM,79.9,61.9,54,30.10,10.0,NE,12.7,-,N/A,,Partly Cloudy,40,2012-11-13 19:56:00
11:56 AM,75.9,59.9,57,30.07,10.0,NNE,16.1,-,N/A,,Scattered Clouds,30,2012-11-13 21:56:00
12:56 PM,77.0,61.9,59,30.04,10.0,NE,17.3,-,N/A,,Clear,40,2012-11-13 22:56:00
1:56 PM,79.9,61.9,54,30.01,10.0,NE,24.2,-,N/A,,Partly Cloudy,40,2012-11-13 23:56:00
2:56 PM,79.9,61.0,52,30.00,10.0,NE,20.7,-,N/A,,Clear,40,2012-11-14 00:56:00
3:56 PM,77.9,63.0,60,30.00,10.0,NE,23.0,-,N/A,,Clear,50,2012-11-14 01:56:00
4:56 PM,73.9,61.9,66,30.03,10.0,NE,26.5,-,N/A,,Clear,40,2012-11-14 02:56:00
5:56 PM,70.9,63.0,76,30.05,10.0,NE,25.3,-,N/A,,Clear,40,2012-11-14 03:56:00
6:56 PM,70.0,61.9,75,30.06,10.0,NE,29.9,-,N/A,,Clear,50,2012-11-14 04:56:00
7:56 PM,70.0,63.0,78,30.04,4.0,NE,31.1,-,N/A,,Haze,50,2012-11-14 05:56:00
8:56 PM,70.0,63.9,81,30.06,10.0,NE,26.5,-,N/A,,Clear,50,2012-11-14 06:56:00
9:48 PM,69.8,62.6,78,30.14,10.0,NE,26.5,38.0,N/A,,Clear,50,2012-11-14 07:48:00
9:56 PM,70.0,63.0,78,30.09,10.0,ENE,16.1,33.4,N/A,,Clear,70,2012-11-14 07:56:00
10:56 PM,68.9,63.0,81,30.07,10.0,NE,25.3,36.8,N/A,,Clear,50,2012-11-14 08:56:00
11:56 PM,70.0,63.0,78,30.12,10.0,NE,11.5,-,N/A,,Clear,50,2012-11-14 09:56:00